Time,TemperatureF,DewpointF,PressureIn,WindDirection,WindDirectionDegrees,WindSpeedMPH,WindSpeedGustMPH,Humidity,HourlyPrecipIn,Conditions,Clouds,dailyrainin,SoftwareType,DateUTC
2013-05-12 00:01:00,72.8,68.7,29.83,NW,309,0.0,7.0,87,0.00,,,0.00,VWS V14.00,2013-05-12 04:01:00,
2013-05-12 00:02:00,72.8,68.7,29.83,WNW,282,1.0,2.0,87,0.00,,,0.00,VWS V14.00,2013-05-12 04:02:00,
2013-05-12 00:07:00,72.8,68.7,29.83,SW,224,1.0,7.0,87,0.00,,,0.00,VWS V14.00,2013-05-12 04:07:00,
2013-05-12 00:12:00,72.8,69.0,29.83,West,271,0.0,5.0,88,0.00,,,0.00,VWS V14.00,2013-05-12 04:12:00,
2013-05-12 00:18:00,72.8,69.0,29.83,NW,318,2.0,6.0,88,0.00,,,0.00,VWS V14.00,2013-05-12 04:18:00,
2013-05-12 00:23:00,72.7,68.9,29.83,WNW,299,1.0,2.0,88,0.00,,,0.00,VWS V14.00,2013-05-12 04:23:00,
2013-05-12 00:28:00,72.7,68.9,29.83,SSW,194,2.0,5.0,88,0.00,,,0.00,VWS V14.00,2013-05-12 04:28:00,
2013-05-12 00:33:00,72.7,68.9,29.83,WNW,301,2.0,3.0,88,0.00,,,0.00,VWS V14.00,2013-05-12 04:33:00,
2013-05-12 00:38:00,72.7,69.3,29.82,WSW,237,3.0,6.0,89,0.00,,,0.00,VWS V14.00,2013-05-12 04:38:00,
2013-05-12 00:43:00,72.7,69.3,29.82,WSW,250,2.0,8.0,89,0.00,,,0.00,VWS V14.00,2013-05-12 04:43:00,
2013-05-12 00:48:00,72.7,69.3,29.82,SW,235,0.0,8.0,89,0.00,,,0.00,VWS V14.00,2013-05-12 04:48:00,
2013-05-12 00:53:00,72.8,69.4,29.82,WSW,257,1.0,4.0,89,0.00,,,0.00,VWS V14.00,2013-05-12 04:53:00,
2013-05-12 00:59:00,72.8,69.4,29.82,West,276,1.0,4.0,89,0.00,,,0.00,VWS V14.00,2013-05-12 04:59:00,
2013-05-12 01:04:00,72.7,69.3,29.81,SW,234,3.0,6.0,89,0.00,,,0.00,VWS V14.00,2013-05-12 05:04:00,
2013-05-12 01:09:00,72.7,69.6,29.81,SW,230,1.0,6.0,90,0.00,,,0.00,VWS V14.00,2013-05-12 05:09:00,
2013-05-12 01:14:00,72.7,69.6,29.82,North,355,2.0,5.0,90,0.00,,,0.00,VWS V14.00,2013-05-12 05:14:00,
2013-05-12 01:19:00,72.6,69.5,29.82,SW,229,2.0,6.0,90,0.00,,,0.00,VWS V14.00,2013-05-12 05:19:00,
2013-05-12 01:24:00,72.6,69.5,29.82,WNW,300,0.0,3.0,90,0.00,,,0.00,VWS V14.00,2013-05-12 05:24:00,
2013-05-12 01:30:00,72.6,69.8,29.82,West,272,1.0,5.0,91,0.00,,,0.00,VWS V14.00,2013-05-12 05:30:00,
2013-05-12 01:35:00,72.6,69.8,29.82,WNW,291,2.0,6.0,91,0.00,,,0.00,VWS V14.00,2013-05-12 05:35:00,
2013-05-12 01:40:00,72.5,69.7,29.81,WSW,254,1.0,6.0,91,0.00,,,0.00,VWS V14.00,2013-05-12 05:40:00,
2013-05-12 01:45:00,72.5,69.7,29.81,SW,221,1.0,3.0,91,0.00,,,0.00,VWS V14.00,2013-05-12 05:45:00,
2013-05-12 01:50:00,72.4,69.6,29.81,West,261,2.0,5.0,91,0.00,,,0.00,VWS V14.00,2013-05-12 05:50:00,
2013-05-12 01:55:00,72.3,69.5,29.81,West,273,0.0,2.0,91,0.00,,,0.00,VWS V14.00,2013-05-12 05:55:00,
2013-05-12 02:01:00,72.2,69.8,29.81,SW,218,0.0,3.0,92,0.00,,,0.00,VWS V14.00,2013-05-12 06:01:00,
2013-05-12 02:06:00,72.2,69.8,29.81,West,263,0.0,1.0,92,0.00,,,0.00,VWS V14.00,2013-05-12 06:06:00,
2013-05-12 02:11:00,72.1,69.7,29.81,West,269,1.0,2.0,92,0.00,,,0.00,VWS V14.00,2013-05-12 06:11:00,
2013-05-12 02:16:00,72.1,69.7,29.80,WSW,257,0.0,5.0,92,0.00,,,0.00,VWS V14.00,2013-05-12 06:16:00,
2013-05-12 02:21:00,72.1,69.7,29.80,South,191,0.0,0.0,92,0.00,,,0.00,VWS V14.00,2013-05-12 06:21:00,
2013-05-12 02:26:00,72.0,69.9,29.80,South,191,0.0,1.0,93,0.00,,,0.00,VWS V14.00,2013-05-12 06:26:00,
2013-05-12 02:31:00,71.9,69.8,29.80,South,191,1.0,1.0,93,0.00,,,0.00,VWS V14.00,2013-05-12 06:31:00,
2013-05-12 02:37:00,71.9,69.8,29.80,SW,227,1.0,2.0,93,0.00,,,0.00,VWS V14.00,2013-05-12 06:37:00,
2013-05-12 02:42:00,71.8,69.7,29.80,SSW,206,2.0,3.0,93,0.00,,,0.00,VWS V14.00,2013-05-12 06:42:00,
2013-05-12 02:47:00,71.7,69.6,29.79,SSW,211,0.0,3.0,93,0.00,,,0.00,VWS V14.00,2013-05-12 06:47:00,
2013-05-12 02:52:00,71.6,69.8,29.79,SSW,209,1.0,1.0,94,0.00,,,0.00,VWS V14.00,2013-05-12 06:52:00,
2013-05-12 02:57:00,71.5,69.7,29.79,SW,233,3.0,3.0,94,0.00,,,0.00,VWS V14.00,2013-05-12 06:57:00,
2013-05-12 03:02:00,71.4,69.6,29.79,SW,234,0.0,0.0,94,0.00,,,0.00,VWS V14.00,2013-05-12 07:02:00,
2013-05-12 03:08:00,71.4,69.6,29.79,SW,234,0.0,0.0,94,0.00,,,0.00,VWS V14.00,2013-05-12 07:08:00,
2013-05-12 03:13:00,71.3,69.5,29.79,SW,233,0.0,1.0,94,0.00,,,0.00,VWS V14.00,2013-05-12 07:13:00,
2013-05-12 03:18:00,71.3,69.8,29.80,SW,233,1.0,1.0,95,0.00,,,0.00,VWS V14.00,2013-05-12 07:18:00,
2013-05-12 03:23:00,71.3,69.5,29.80,WSW,252,0.0,3.0,94,0.00,,,0.00,VWS V14.00,2013-05-12 07:23:00,
2013-05-12 03:28:00,71.3,69.8,29.79,WSW,250,0.0,3.0,95,0.00,,,0.00,VWS V14.00,2013-05-12 07:28:00,
2013-05-12 03:33:00,71.3,69.8,29.79,SSW,201,0.0,1.0,95,0.00,,,0.00,VWS V14.00,2013-05-12 07:33:00,
2013-05-12 03:39:00,71.2,69.7,29.79,SSW,200,0.0,1.0,95,0.00,,,0.00,VWS V14.00,2013-05-12 07:39:00,
2013-05-12 03:44:00,71.3,69.8,29.79,SSW,200,0.0,1.0,95,0.00,,,0.00,VWS V14.00,2013-05-12 07:44:00,
2013-05-12 03:49:00,71.2,69.7,29.79,West,273,1.0,2.0,95,0.00,,,0.00,VWS V14.00,2013-05-12 07:49:00,
2013-05-12 03:54:00,71.3,69.8,29.78,WNW,286,0.0,4.0,95,0.00,,,0.00,VWS V14.00,2013-05-12 07:54:00,
2013-05-12 03:59:00,71.3,69.8,29.78,West,281,0.0,4.0,95,0.00,,,0.00,VWS V14.00,2013-05-12 07:59:00,
2013-05-12 04:04:00,71.4,69.9,29.78,NW,311,0.0,2.0,95,0.00,,,0.00,VWS V14.00,2013-05-12 08:04:00,
2013-05-12 04:10:00,71.3,69.5,29.78,NW,314,0.0,3.0,94,0.00,,,0.00,VWS V14.00,2013-05-12 08:10:00,
2013-05-12 04:15:00,71.3,69.5,29.79,WNW,299,1.0,2.0,94,0.00,,,0.00,VWS V14.00,2013-05-12 08:15:00,
2013-05-12 04:20:00,71.3,69.5,29.79,NW,324,3.0,3.0,94,0.00,,,0.00,VWS V14.00,2013-05-12 08:20:00,
2013-05-12 04:25:00,71.4,69.6,29.78,NW,305,0.0,3.0,94,0.00,,,0.00,VWS V14.00,2013-05-12 08:25:00,
2013-05-12 04:30:00,71.4,69.6,29.78,NW,306,2.0,4.0,94,0.00,,,0.00,VWS V14.00,2013-05-12 08:30:00,
2013-05-12 04:35:00,71.5,69.7,29.78,NW,304,0.0,5.0,94,0.00,,,0.00,VWS V14.00,2013-05-12 08:35:00,
2013-05-12 04:40:00,71.5,69.4,29.78,SW,233,1.0,5.0,93,0.00,,,0.00,VWS V14.00,2013-05-12 08:40:00,
2013-05-12 04:46:00,71.5,69.4,29.77,West,271,1.0,3.0,93,0.00,,,0.00,VWS V14.00,2013-05-12 08:46:00,
2013-05-12 04:51:00,71.6,69.2,29.77,NW,320,2.0,4.0,92,0.00,,,0.00,VWS V14.00,2013-05-12 08:51:00,
2013-05-12 04:56:00,71.7,69.3,29.77,WSW,252,0.0,4.0,92,0.00,,,0.00,VWS V14.00,2013-05-12 08:56:00,
2013-05-12 05:01:00,71.7,69.3,29.77,NW,322,2.0,5.0,92,0.00,,,0.00,VWS V14.00,2013-05-12 09:01:00,
2013-05-12 05:06:00,71.7,69.3,29.77,WNW,299,0.0,3.0,92,0.00,,,0.00,VWS V14.00,2013-05-12 09:06:00,
2013-05-12 05:11:00,71.6,69.2,29.77,WNW,296,0.0,1.0,92,0.00,,,0.00,VWS V14.00,2013-05-12 09:11:00,
2013-05-12 05:17:00,71.5,69.1,29.77,West,272,0.0,4.0,92,0.00,,,0.00,VWS V14.00,2013-05-12 09:17:00,
2013-05-12 05:22:00,71.5,69.1,29.77,NW,310,1.0,3.0,92,0.00,,,0.00,VWS V14.00,2013-05-12 09:22:00,
2013-05-12 05:27:00,71.4,69.0,29.77,WNW,282,2.0,4.0,92,0.00,,,0.00,VWS V14.00,2013-05-12 09:27:00,
2013-05-12 05:32:00,71.4,69.0,29.77,WNW,294,2.0,2.0,92,0.00,,,0.00,VWS V14.00,2013-05-12 09:32:00,
2013-05-12 05:37:00,71.3,68.9,29.77,WNW,294,1.0,2.0,92,0.00,,,0.00,VWS V14.00,2013-05-12 09:37:00,
2013-05-12 05:42:00,71.3,68.9,29.77,WNW,295,3.0,3.0,92,0.00,,,0.00,VWS V14.00,2013-05-12 09:42:00,
2013-05-12 05:47:00,71.2,68.8,29.77,WNW,302,3.0,4.0,92,0.00,,,0.00,VWS V14.00,2013-05-12 09:47:00,
2013-05-12 05:53:00,71.2,68.8,29.77,WNW,286,1.0,3.0,92,0.00,,,0.00,VWS V14.00,2013-05-12 09:53:00,
2013-05-12 05:58:00,71.2,68.8,29.77,NW,314,1.0,3.0,92,0.00,,,0.00,VWS V14.00,2013-05-12 09:58:00,
2013-05-12 06:03:00,71.2,68.8,29.77,NW,313,3.0,3.0,92,0.00,,,0.00,VWS V14.00,2013-05-12 10:03:00,
2013-05-12 06:08:00,71.2,68.8,29.77,WNW,300,0.0,7.0,92,0.00,,,0.00,VWS V14.00,2013-05-12 10:08:00,
2013-05-12 06:13:00,71.1,68.7,29.77,NW,313,1.0,3.0,92,0.00,,,0.00,VWS V14.00,2013-05-12 10:13:00,
2013-05-12 06:18:00,71.1,68.7,29.78,NW,306,0.0,4.0,92,0.00,,,0.00,VWS V14.00,2013-05-12 10:18:00,
2013-05-12 06:24:00,71.0,68.6,29.77,SW,220,4.0,5.0,92,0.00,,,0.00,VWS V14.00,2013-05-12 10:24:00,
2013-05-12 06:29:00,71.0,68.6,29.77,WNW,294,1.0,5.0,92,0.00,,,0.00,VWS V14.00,2013-05-12 10:29:00,
2013-05-12 06:34:00,70.9,68.5,29.78,NW,321,3.0,4.0,92,0.00,,,0.00,VWS V14.00,2013-05-12 10:34:00,
2013-05-12 06:39:00,70.9,68.8,29.79,NW,304,1.0,4.0,93,0.00,,,0.00,VWS V14.00,2013-05-12 10:39:00,
2013-05-12 06:44:00,70.9,68.8,29.79,WNW,301,3.0,6.0,93,0.00,,,0.00,VWS V14.00,2013-05-12 10:44:00,
2013-05-12 06:49:00,70.9,68.5,29.79,WNW,298,3.0,6.0,92,0.00,,,0.00,VWS V14.00,2013-05-12 10:49:00,
2013-05-12 06:54:00,70.9,68.5,29.79,NW,313,1.0,6.0,92,0.00,,,0.00,VWS V14.00,2013-05-12 10:54:00,
2013-05-12 06:59:00,70.9,68.5,29.79,WNW,300,0.0,6.0,92,0.00,,,0.00,VWS V14.00,2013-05-12 10:59:00,
2013-05-12 07:05:00,70.9,68.5,29.79,WNW,300,0.0,5.0,92,0.00,,,0.00,VWS V14.00,2013-05-12 11:05:00,
2013-05-12 07:10:00,70.9,68.8,29.79,WNW,286,1.0,5.0,93,0.00,,,0.00,VWS V14.00,2013-05-12 11:10:00,
2013-05-12 07:15:00,70.9,68.8,29.79,WNW,298,2.0,4.0,93,0.00,,,0.00,VWS V14.00,2013-05-12 11:15:00,
2013-05-12 07:20:00,71.0,68.9,29.80,NW,311,0.0,5.0,93,0.00,,,0.00,VWS V14.00,2013-05-12 11:20:00,
2013-05-12 07:25:00,71.1,69.0,29.80,NW,311,2.0,2.0,93,0.00,,,0.00,VWS V14.00,2013-05-12 11:25:00,
2013-05-12 07:30:00,71.3,69.2,29.80,NNW,335,2.0,6.0,93,0.00,,,0.00,VWS V14.00,2013-05-12 11:30:00,
2013-05-12 07:36:00,71.5,69.1,29.80,WNW,296,0.0,7.0,92,0.00,,,0.00,VWS V14.00,2013-05-12 11:36:00,
2013-05-12 07:41:00,71.7,69.3,29.80,WNW,296,0.0,7.0,92,0.00,,,0.00,VWS V14.00,2013-05-12 11:41:00,
2013-05-12 07:46:00,71.8,69.0,29.80,NW,305,1.0,6.0,91,0.00,,,0.00,VWS V14.00,2013-05-12 11:46:00,
2013-05-12 07:51:00,72.0,69.2,29.80,West,261,2.0,6.0,91,0.00,,,0.00,VWS V14.00,2013-05-12 11:51:00,
2013-05-12 07:56:00,72.1,69.0,29.81,WNW,294,1.0,4.0,90,0.00,,,0.00,VWS V14.00,2013-05-12 11:56:00,
2013-05-12 08:01:00,72.2,68.8,29.81,WNW,287,2.0,4.0,89,0.00,,,0.00,VWS V14.00,2013-05-12 12:01:00,
2013-05-12 08:06:00,72.2,68.8,29.81,NW,309,0.0,7.0,89,0.00,,,0.00,VWS V14.00,2013-05-12 12:06:00,
2013-05-12 08:11:00,72.2,68.8,29.80,North,360,0.0,0.0,89,0.00,,,0.00,VWS V14.00,2013-05-12 12:11:00,
2013-05-12 08:16:00,72.2,68.8,29.80,North,10,0.0,3.0,89,0.00,,,0.00,VWS V14.00,2013-05-12 12:16:00,
2013-05-12 08:21:00,72.1,68.7,29.81,NW,304,0.0,4.0,89,0.00,,,0.00,VWS V14.00,2013-05-12 12:21:00,
2013-05-12 08:27:00,72.1,68.3,29.81,NW,307,0.0,4.0,88,0.00,,,0.00,VWS V14.00,2013-05-12 12:27:00,
2013-05-12 08:32:00,72.2,68.4,29.81,North,355,0.0,0.0,88,0.00,,,0.00,VWS V14.00,2013-05-12 12:32:00,
2013-05-12 08:37:00,72.8,69.0,29.82,WSW,242,0.0,3.0,88,0.00,,,0.00,VWS V14.00,2013-05-12 12:37:00,
2013-05-12 08:42:00,73.3,68.5,29.82,North,349,0.0,1.0,85,0.00,,,0.00,VWS V14.00,2013-05-12 12:42:00,
2013-05-12 08:47:00,73.4,68.6,29.82,WNW,300,3.0,4.0,85,0.00,,,0.00,VWS V14.00,2013-05-12 12:47:00,
2013-05-12 08:52:00,73.5,68.7,29.83,WNW,302,0.0,1.0,85,0.00,,,0.00,VWS V14.00,2013-05-12 12:52:00,
2013-05-12 08:57:00,73.5,68.4,29.83,NE,40,2.0,3.0,84,0.00,,,0.00,VWS V14.00,2013-05-12 12:57:00,
2013-05-12 09:03:00,73.4,68.3,29.83,WNW,294,3.0,3.0,84,0.00,,,0.00,VWS V14.00,2013-05-12 13:03:00,
2013-05-12 09:08:00,73.3,68.2,29.83,North,355,2.0,4.0,84,0.00,,,0.00,VWS V14.00,2013-05-12 13:08:00,
2013-05-12 09:13:00,73.2,68.1,29.83,NE,48,0.0,2.0,84,0.00,,,0.00,VWS V14.00,2013-05-12 13:13:00,
2013-05-12 09:18:00,73.0,67.9,29.83,North,355,0.0,4.0,84,0.00,,,0.00,VWS V14.00,2013-05-12 13:18:00,
2013-05-12 09:23:00,73.3,68.5,29.83,WNW,292,1.0,7.0,85,0.00,,,0.00,VWS V14.00,2013-05-12 13:23:00,
2013-05-12 09:28:00,74.2,69.4,29.82,NE,42,3.0,7.0,85,0.00,,,0.00,VWS V14.00,2013-05-12 13:28:00,
2013-05-12 09:34:00,74.8,68.9,29.82,NNW,346,2.0,3.0,82,0.00,,,0.00,VWS V14.00,2013-05-12 13:34:00,
2013-05-12 09:39:00,74.8,68.6,29.83,NNE,22,1.0,4.0,81,0.00,,,0.00,VWS V14.00,2013-05-12 13:39:00,
2013-05-12 09:44:00,74.6,68.8,29.82,NE,55,2.0,3.0,82,0.00,,,0.00,VWS V14.00,2013-05-12 13:44:00,
2013-05-12 09:49:00,74.3,68.4,29.82,NE,55,0.0,3.0,82,0.00,,,0.00,VWS V14.00,2013-05-12 13:49:00,
2013-05-12 09:54:00,74.5,68.7,29.82,NE,34,2.0,4.0,82,0.00,,,0.00,VWS V14.00,2013-05-12 13:54:00,
2013-05-12 09:59:00,74.7,68.5,29.82,NE,34,2.0,4.0,81,0.00,,,0.00,VWS V14.00,2013-05-12 13:59:00,
2013-05-12 10:05:00,75.1,68.2,29.82,NNE,15,1.0,3.0,79,0.00,,,0.00,VWS V14.00,2013-05-12 14:05:00,
2013-05-12 10:10:00,75.4,68.1,29.82,NW,317,1.0,4.0,78,0.00,,,0.00,VWS V14.00,2013-05-12 14:10:00,
2013-05-12 10:15:00,75.4,67.7,29.82,NE,49,1.0,5.0,77,0.00,,,0.00,VWS V14.00,2013-05-12 14:15:00,
2013-05-12 10:20:00,75.6,67.9,29.82,NNE,33,3.0,5.0,77,0.00,,,0.00,VWS V14.00,2013-05-12 14:20:00,
2013-05-12 10:25:00,76.1,68.0,29.83,NNE,25,2.0,2.0,76,0.00,,,0.00,VWS V14.00,2013-05-12 14:25:00,
2013-05-12 10:30:00,76.5,68.0,29.82,NNE,18,1.0,3.0,75,0.00,,,0.00,VWS V14.00,2013-05-12 14:30:00,
2013-05-12 10:36:00,76.5,67.6,29.83,NE,40,0.0,3.0,74,0.00,,,0.00,VWS V14.00,2013-05-12 14:36:00,
2013-05-12 10:41:00,76.9,67.6,29.83,ENE,63,5.0,5.0,73,0.00,,,0.00,VWS V14.00,2013-05-12 14:41:00,
2013-05-12 10:46:00,76.9,67.6,29.82,NE,34,0.0,4.0,73,0.00,,,0.00,VWS V14.00,2013-05-12 14:46:00,
2013-05-12 10:51:00,77.1,67.8,29.82,NNE,32,2.0,4.0,73,0.00,,,0.00,VWS V14.00,2013-05-12 14:51:00,
2013-05-12 10:56:00,77.0,67.7,29.83,NNE,28,1.0,4.0,73,0.00,,,0.00,VWS V14.00,2013-05-12 14:56:00,
2013-05-12 11:01:00,76.7,67.8,29.83,NNE,28,2.0,2.0,74,0.00,,,0.00,VWS V14.00,2013-05-12 15:01:00,
2013-05-12 11:06:00,76.6,67.7,29.83,NE,37,1.0,3.0,74,0.00,,,0.00,VWS V14.00,2013-05-12 15:06:00,
2013-05-12 11:11:00,76.6,67.3,29.83,NE,49,3.0,3.0,73,0.00,,,0.00,VWS V14.00,2013-05-12 15:11:00,
2013-05-12 11:17:00,76.8,67.9,29.83,NNE,28,3.0,3.0,74,0.00,,,0.00,VWS V14.00,2013-05-12 15:17:00,
2013-05-12 11:22:00,76.8,67.5,29.83,NNE,30,1.0,3.0,73,0.00,,,0.00,VWS V14.00,2013-05-12 15:22:00,
2013-05-12 11:27:00,76.2,67.7,29.83,NE,36,3.0,4.0,75,0.00,,,0.00,VWS V14.00,2013-05-12 15:27:00,
2013-05-12 11:32:00,75.9,66.6,29.83,NE,43,1.0,2.0,73,0.00,,,0.00,VWS V14.00,2013-05-12 15:32:00,
2013-05-12 11:37:00,76.3,67.0,29.83,NE,36,1.0,5.0,73,0.00,,,0.00,VWS V14.00,2013-05-12 15:37:00,
2013-05-12 11:42:00,76.8,67.1,29.83,North,11,3.0,3.0,72,0.00,,,0.00,VWS V14.00,2013-05-12 15:42:00,
2013-05-12 11:47:00,76.8,66.3,29.83,NNE,32,1.0,4.0,70,0.00,,,0.00,VWS V14.00,2013-05-12 15:47:00,
2013-05-12 11:53:00,77.1,67.0,29.83,NE,48,3.0,4.0,71,0.00,,,0.00,VWS V14.00,2013-05-12 15:53:00,
2013-05-12 11:58:00,77.5,66.1,29.83,NE,46,2.0,5.0,68,0.00,,,0.00,VWS V14.00,2013-05-12 15:58:00,
2013-05-12 12:03:00,77.7,66.7,29.83,NE,38,2.0,3.0,69,0.00,,,0.00,VWS V14.00,2013-05-12 16:03:00,
2013-05-12 12:08:00,77.5,66.5,29.83,NE,38,0.0,3.0,69,0.00,,,0.00,VWS V14.00,2013-05-12 16:08:00,
2013-05-12 12:13:00,78.0,67.0,29.83,NW,317,1.0,5.0,69,0.00,,,0.00,VWS V14.00,2013-05-12 16:13:00,
2013-05-12 12:18:00,78.0,66.2,29.83,NE,43,1.0,5.0,67,0.00,,,0.00,VWS V14.00,2013-05-12 16:18:00,
2013-05-12 12:24:00,77.9,66.5,29.83,NW,317,1.0,6.0,68,0.00,,,0.00,VWS V14.00,2013-05-12 16:24:00,
2013-05-12 12:29:00,78.5,66.2,29.82,WNW,300,2.0,8.0,66,0.00,,,0.00,VWS V14.00,2013-05-12 16:29:00,
2013-05-12 12:34:00,78.5,66.2,29.82,NW,314,0.0,5.0,66,0.00,,,0.00,VWS V14.00,2013-05-12 16:34:00,
2013-05-12 12:39:00,78.4,66.6,29.82,NE,34,3.0,5.0,67,0.00,,,0.00,VWS V14.00,2013-05-12 16:39:00,
2013-05-12 12:44:00,78.4,67.0,29.83,NW,319,2.0,3.0,68,0.00,,,0.00,VWS V14.00,2013-05-12 16:44:00,
2013-05-12 12:49:00,78.9,66.6,29.82,NE,48,0.0,4.0,66,0.00,,,0.00,VWS V14.00,2013-05-12 16:49:00,
2013-05-12 12:54:00,79.3,66.1,29.82,NNE,33,0.0,2.0,64,0.00,,,0.00,VWS V14.00,2013-05-12 16:54:00,
2013-05-12 13:00:00,79.7,66.9,29.82,NE,34,3.0,6.0,65,0.00,,,0.00,VWS V14.00,2013-05-12 17:00:00,
2013-05-12 13:05:00,79.1,66.8,29.82,NE,41,1.0,4.0,66,0.00,,,0.00,VWS V14.00,2013-05-12 17:05:00,
2013-05-12 13:10:00,79.1,66.3,29.82,ENE,61,2.0,4.0,65,0.00,,,0.00,VWS V14.00,2013-05-12 17:10:00,
2013-05-12 13:15:00,79.1,66.3,29.82,ENE,76,3.0,6.0,65,0.00,,,0.00,VWS V14.00,2013-05-12 17:15:00,
2013-05-12 13:20:00,79.0,65.8,29.82,NNW,345,3.0,6.0,64,0.00,,,0.00,VWS V14.00,2013-05-12 17:20:00,
2013-05-12 13:25:00,79.2,65.5,29.82,North,360,1.0,4.0,63,0.00,,,0.00,VWS V14.00,2013-05-12 17:25:00,
2013-05-12 13:31:00,79.3,65.2,29.82,ENE,64,0.0,4.0,62,0.00,,,0.00,VWS V14.00,2013-05-12 17:31:00,
2013-05-12 13:36:00,79.2,65.5,29.82,NE,42,4.0,5.0,63,0.00,,,0.00,VWS V14.00,2013-05-12 17:36:00,
2013-05-12 13:41:00,79.6,65.9,29.82,WSW,250,2.0,5.0,63,0.00,,,0.00,VWS V14.00,2013-05-12 17:41:00,
2013-05-12 13:46:00,80.3,65.2,29.82,NW,319,5.0,11.0,60,0.00,,,0.00,VWS V14.00,2013-05-12 17:46:00,
2013-05-12 13:51:00,80.1,66.4,29.82,NW,316,0.0,0.0,63,0.00,,,0.00,VWS V14.00,2013-05-12 17:51:00,
2013-05-12 13:56:00,80.0,66.3,29.82,SW,230,2.0,6.0,63,0.00,,,0.00,VWS V14.00,2013-05-12 17:56:00,
2013-05-12 14:01:00,80.0,64.9,29.82,NNE,24,2.0,3.0,60,0.00,,,0.00,VWS V14.00,2013-05-12 18:01:00,
2013-05-12 14:07:00,80.2,64.6,29.82,NE,42,2.0,5.0,59,0.00,,,0.00,VWS V14.00,2013-05-12 18:07:00,
2013-05-12 14:12:00,80.5,64.4,29.82,East,94,0.0,3.0,58,0.00,,,0.00,VWS V14.00,2013-05-12 18:12:00,
2013-05-12 14:17:00,80.8,63.7,29.82,WNW,292,2.0,6.0,56,0.00,,,0.00,VWS V14.00,2013-05-12 18:17:00,
2013-05-12 14:22:00,80.8,64.2,29.82,NE,40,2.0,4.0,57,0.00,,,0.00,VWS V14.00,2013-05-12 18:22:00,
2013-05-12 14:27:00,80.7,62.5,29.82,West,280,5.0,6.0,54,0.00,,,0.00,VWS V14.00,2013-05-12 18:27:00,
2013-05-12 14:32:00,80.5,63.9,29.82,West,277,7.0,7.0,57,0.00,,,0.00,VWS V14.00,2013-05-12 18:32:00,
2013-05-12 14:38:00,80.9,62.2,29.82,NNE,18,2.0,7.0,53,0.00,,,0.00,VWS V14.00,2013-05-12 18:38:00,
2013-05-12 14:43:00,80.7,63.0,29.82,NE,36,1.0,2.0,55,0.00,,,0.00,VWS V14.00,2013-05-12 18:43:00,
2013-05-12 14:48:00,81.0,62.8,29.82,West,271,4.0,10.0,54,0.00,,,0.00,VWS V14.00,2013-05-12 18:48:00,
2013-05-12 14:53:00,81.2,63.5,29.82,West,281,5.0,7.0,55,0.00,,,0.00,VWS V14.00,2013-05-12 18:53:00,
2013-05-12 14:58:00,81.3,62.5,29.82,NNE,25,1.0,9.0,53,0.00,,,0.00,VWS V14.00,2013-05-12 18:58:00,
2013-05-12 15:03:00,81.7,60.1,29.82,WNW,293,5.0,10.0,48,0.00,,,0.00,VWS V14.00,2013-05-12 19:03:00,
2013-05-12 15:08:00,81.6,61.2,29.82,ENE,61,1.0,10.0,50,0.00,,,0.00,VWS V14.00,2013-05-12 19:08:00,
2013-05-12 15:14:00,80.7,60.3,29.82,NNW,327,2.0,4.0,50,0.00,,,0.00,VWS V14.00,2013-05-12 19:14:00,
2013-05-12 15:19:00,80.1,60.4,29.82,NE,40,0.0,4.0,51,0.00,,,0.00,VWS V14.00,2013-05-12 19:19:00,
2013-05-12 15:24:00,80.5,60.2,29.81,NE,41,2.0,7.0,50,0.00,,,0.00,VWS V14.00,2013-05-12 19:24:00,
2013-05-12 15:29:00,81.2,59.1,29.81,NW,312,2.0,7.0,47,0.00,,,0.00,VWS V14.00,2013-05-12 19:29:00,
2013-05-12 15:34:00,81.5,58.8,29.81,WNW,291,5.0,8.0,46,0.00,,,0.00,VWS V14.00,2013-05-12 19:34:00,
2013-05-12 15:40:00,81.6,58.8,29.81,NE,41,1.0,8.0,46,0.00,,,0.00,VWS V14.00,2013-05-12 19:40:00,
2013-05-12 15:45:00,81.8,59.0,29.81,North,350,1.0,5.0,46,0.00,,,0.00,VWS V14.00,2013-05-12 19:45:00,
2013-05-12 15:50:00,81.5,58.8,29.81,NE,34,2.0,5.0,46,0.00,,,0.00,VWS V14.00,2013-05-12 19:50:00,
2013-05-12 15:55:00,81.4,58.0,29.81,NNE,15,3.0,4.0,45,0.00,,,0.00,VWS V14.00,2013-05-12 19:55:00,
2013-05-12 16:00:00,81.5,58.1,29.81,NE,34,1.0,4.0,45,0.00,,,0.00,VWS V14.00,2013-05-12 20:00:00,
2013-05-12 16:05:00,81.4,58.0,29.81,WNW,296,3.0,4.0,45,0.00,,,0.00,VWS V14.00,2013-05-12 20:05:00,
2013-05-12 16:10:00,81.5,56.9,29.81,NE,55,0.0,6.0,43,0.00,,,0.00,VWS V14.00,2013-05-12 20:10:00,
2013-05-12 16:16:00,81.8,57.8,29.81,NNE,28,1.0,6.0,44,0.00,,,0.00,VWS V14.00,2013-05-12 20:16:00,
2013-05-12 16:21:00,82.1,56.1,29.81,NW,305,2.0,8.0,41,0.00,,,0.00,VWS V14.00,2013-05-12 20:21:00,
2013-05-12 16:26:00,82.1,57.4,29.81,NW,321,2.0,10.0,43,0.00,,,0.00,VWS V14.00,2013-05-12 20:26:00,
2013-05-12 16:31:00,82.4,55.7,29.81,NW,309,4.0,10.0,40,0.00,,,0.00,VWS V14.00,2013-05-12 20:31:00,
2013-05-12 16:36:00,82.0,56.7,29.81,NW,306,7.0,10.0,42,0.00,,,0.00,VWS V14.00,2013-05-12 20:36:00,
2013-05-12 16:41:00,81.9,57.2,29.81,WNW,294,1.0,2.0,43,0.00,,,0.00,VWS V14.00,2013-05-12 20:41:00,
2013-05-12 16:47:00,81.1,56.5,29.81,NNE,31,0.0,6.0,43,0.00,,,0.00,VWS V14.00,2013-05-12 20:47:00,
2013-05-12 16:52:00,80.7,56.8,29.81,NW,309,3.0,4.0,44,0.00,,,0.00,VWS V14.00,2013-05-12 20:52:00,
2013-05-12 16:57:00,81.0,57.7,29.81,North,5,2.0,8.0,45,0.00,,,0.00,VWS V14.00,2013-05-12 20:57:00,
2013-05-12 17:02:00,80.8,56.9,29.81,NNE,24,2.0,3.0,44,0.00,,,0.00,VWS V14.00,2013-05-12 21:02:00,
2013-05-12 17:07:00,80.7,57.4,29.81,WNW,300,5.0,8.0,45,0.00,,,0.00,VWS V14.00,2013-05-12 21:07:00,
2013-05-12 17:13:00,81.2,57.9,29.82,NW,307,2.0,6.0,45,0.00,,,0.00,VWS V14.00,2013-05-12 21:13:00,
2013-05-12 17:18:00,81.4,57.4,29.82,NW,317,2.0,12.0,44,0.00,,,0.00,VWS V14.00,2013-05-12 21:18:00,
2013-05-12 17:23:00,81.6,58.2,29.82,NE,49,2.0,2.0,45,0.00,,,0.00,VWS V14.00,2013-05-12 21:23:00,
2013-05-12 17:28:00,82.0,57.3,29.82,WNW,295,2.0,5.0,43,0.00,,,0.00,VWS V14.00,2013-05-12 21:28:00,
2013-05-12 17:33:00,82.0,56.0,29.82,West,280,5.0,7.0,41,0.00,,,0.00,VWS V14.00,2013-05-12 21:33:00,
2013-05-12 17:38:00,81.8,57.1,29.82,NW,315,0.0,7.0,43,0.00,,,0.00,VWS V14.00,2013-05-12 21:38:00,
2013-05-12 17:44:00,81.9,57.9,29.82,West,271,5.0,5.0,44,0.00,,,0.00,VWS V14.00,2013-05-12 21:44:00,
2013-05-12 17:49:00,81.6,57.6,29.82,NW,304,0.0,5.0,44,0.00,,,0.00,VWS V14.00,2013-05-12 21:49:00,
2013-05-12 17:54:00,81.6,57.6,29.83,NE,45,2.0,3.0,44,0.00,,,0.00,VWS V14.00,2013-05-12 21:54:00,
2013-05-12 17:59:00,80.9,57.0,29.83,NW,314,1.0,4.0,44,0.00,,,0.00,VWS V14.00,2013-05-12 21:59:00,
2013-05-12 18:04:00,80.4,56.5,29.83,East,79,2.0,3.0,44,0.00,,,0.00,VWS V14.00,2013-05-12 22:04:00,
2013-05-12 18:09:00,80.5,56.0,29.83,East,79,0.0,3.0,43,0.00,,,0.00,VWS V14.00,2013-05-12 22:09:00,
2013-05-12 18:14:00,80.7,56.8,29.83,NW,322,0.0,3.0,44,0.00,,,0.00,VWS V14.00,2013-05-12 22:14:00,
2013-05-12 18:20:00,80.9,56.3,29.83,NW,322,1.0,3.0,43,0.00,,,0.00,VWS V14.00,2013-05-12 22:20:00,
2013-05-12 18:25:00,80.9,56.3,29.83,NE,49,0.0,2.0,43,0.00,,,0.00,VWS V14.00,2013-05-12 22:25:00,
2013-05-12 18:30:00,80.7,56.8,29.83,NE,51,2.0,4.0,44,0.00,,,0.00,VWS V14.00,2013-05-12 22:30:00,
2013-05-12 18:35:00,80.5,56.6,29.83,NW,313,3.0,3.0,44,0.00,,,0.00,VWS V14.00,2013-05-12 22:35:00,
2013-05-12 18:40:00,80.4,56.5,29.83,ENE,60,0.0,5.0,44,0.00,,,0.00,VWS V14.00,2013-05-12 22:40:00,
2013-05-12 18:45:00,80.1,57.5,29.83,WNW,294,3.0,3.0,46,0.00,,,0.00,VWS V14.00,2013-05-12 22:45:00,
2013-05-12 18:51:00,79.6,55.8,29.84,WNW,294,0.0,3.0,44,0.00,,,0.00,VWS V14.00,2013-05-12 22:51:00,
2013-05-12 18:56:00,79.2,55.4,29.84,NW,309,0.0,2.0,44,0.00,,,0.00,VWS V14.00,2013-05-12 22:56:00,
2013-05-12 19:01:00,78.8,56.3,29.84,NW,309,0.0,2.0,46,0.00,,,0.00,VWS V14.00,2013-05-12 23:01:00,
2013-05-12 19:06:00,78.5,56.0,29.84,NW,309,0.0,1.0,46,0.00,,,0.00,VWS V14.00,2013-05-12 23:06:00,
2013-05-12 19:11:00,78.2,56.3,29.84,NW,309,0.0,1.0,47,0.00,,,0.00,VWS V14.00,2013-05-12 23:11:00,
2013-05-12 19:16:00,77.9,57.8,29.85,NW,309,0.0,0.0,50,0.00,,,0.00,VWS V14.00,2013-05-12 23:16:00,
2013-05-12 19:21:00,77.5,60.6,29.85,NW,309,0.0,0.0,56,0.00,,,0.00,VWS V14.00,2013-05-12 23:21:00,
2013-05-12 19:26:00,76.8,60.4,29.85,NW,309,0.0,0.0,57,0.00,,,0.00,VWS V14.00,2013-05-12 23:26:00,
2013-05-12 19:31:00,76.0,60.7,29.85,NW,309,0.0,0.0,59,0.00,,,0.00,VWS V14.00,2013-05-12 23:31:00,
2013-05-12 19:36:00,75.1,59.8,29.86,NW,309,0.0,0.0,59,0.00,,,0.00,VWS V14.00,2013-05-12 23:36:00,
2013-05-12 19:41:00,74.4,60.1,29.86,NW,309,0.0,0.0,61,0.00,,,0.00,VWS V14.00,2013-05-12 23:41:00,
2013-05-12 19:47:00,73.9,61.0,29.86,NW,309,0.0,0.0,64,0.00,,,0.00,VWS V14.00,2013-05-12 23:47:00,
2013-05-12 19:52:00,73.3,61.3,29.86,NW,309,0.0,0.0,66,0.00,,,0.00,VWS V14.00,2013-05-12 23:52:00,
2013-05-12 19:57:00,72.7,60.3,29.86,NW,309,0.0,0.0,65,0.00,,,0.00,VWS V14.00,2013-05-12 23:57:00,
2013-05-12 20:02:00,72.1,60.5,29.87,NW,309,0.0,0.0,67,0.00,,,0.00,VWS V14.00,2013-05-13 00:02:00,
2013-05-12 20:07:00,71.7,60.6,29.87,NW,309,0.0,0.0,68,0.00,,,0.00,VWS V14.00,2013-05-13 00:07:00,
2013-05-12 20:12:00,71.1,60.0,29.87,NW,309,0.0,0.0,68,0.00,,,0.00,VWS V14.00,2013-05-13 00:12:00,
2013-05-12 20:18:00,70.7,60.8,29.87,NW,309,0.0,0.0,71,0.00,,,0.00,VWS V14.00,2013-05-13 00:18:00,
2013-05-12 20:23:00,70.4,61.7,29.87,NW,309,0.0,0.0,74,0.00,,,0.00,VWS V14.00,2013-05-13 00:23:00,
2013-05-12 20:28:00,70.2,61.5,29.88,NW,309,0.0,1.0,74,0.00,,,0.00,VWS V14.00,2013-05-13 00:28:00,
2013-05-12 20:33:00,70.0,61.3,29.88,NW,309,0.0,0.0,74,0.00,,,0.00,VWS V14.00,2013-05-13 00:33:00,
2013-05-12 20:38:00,69.8,61.5,29.88,NW,309,0.0,0.0,75,0.00,,,0.00,VWS V14.00,2013-05-13 00:38:00,
2013-05-12 20:43:00,69.6,62.1,29.88,NW,309,0.0,0.0,77,0.00,,,0.00,VWS V14.00,2013-05-13 00:43:00,
2013-05-12 20:49:00,69.4,62.2,29.88,NW,309,0.0,0.0,78,0.00,,,0.00,VWS V14.00,2013-05-13 00:49:00,
2013-05-12 20:54:00,69.2,62.1,29.88,NW,309,0.0,0.0,78,0.00,,,0.00,VWS V14.00,2013-05-13 00:54:00,
2013-05-12 20:59:00,69.1,62.7,29.89,NW,309,0.0,0.0,80,0.00,,,0.00,VWS V14.00,2013-05-13 00:59:00,
2013-05-12 21:04:00,68.9,62.5,29.89,NW,309,0.0,0.0,80,0.00,,,0.00,VWS V14.00,2013-05-13 01:04:00,
2013-05-12 21:09:00,68.9,63.5,29.89,NW,309,0.0,0.0,83,0.00,,,0.00,VWS V14.00,2013-05-13 01:09:00,
2013-05-12 21:14:00,68.6,62.9,29.90,NW,309,0.0,0.0,82,0.00,,,0.00,VWS V14.00,2013-05-13 01:14:00,
2013-05-12 21:20:00,68.5,63.5,29.90,NW,309,0.0,0.0,84,0.00,,,0.00,VWS V14.00,2013-05-13 01:20:00,
2013-05-12 21:25:00,68.2,63.2,29.90,NW,309,0.0,0.0,84,0.00,,,0.00,VWS V14.00,2013-05-13 01:25:00,
2013-05-12 21:30:00,68.0,63.0,29.90,NW,309,0.0,0.0,84,0.00,,,0.00,VWS V14.00,2013-05-13 01:30:00,
2013-05-12 21:35:00,67.7,63.0,29.90,NW,309,0.0,0.0,85,0.00,,,0.00,VWS V14.00,2013-05-13 01:35:00,
2013-05-12 21:40:00,67.5,62.8,29.91,NW,309,0.0,0.0,85,0.00,,,0.00,VWS V14.00,2013-05-13 01:40:00,
2013-05-12 21:45:00,67.3,63.0,29.91,NW,309,0.0,0.0,86,0.00,,,0.00,VWS V14.00,2013-05-13 01:45:00,
2013-05-12 21:51:00,67.0,63.0,29.91,NW,309,0.0,0.0,87,0.00,,,0.00,VWS V14.00,2013-05-13 01:51:00,
2013-05-12 21:56:00,66.8,63.1,29.91,NW,309,0.0,0.0,88,0.00,,,0.00,VWS V14.00,2013-05-13 01:56:00,
2013-05-12 22:01:00,66.7,63.0,29.92,NW,309,0.0,0.0,88,0.00,,,0.00,VWS V14.00,2013-05-13 02:01:00,
2013-05-12 22:06:00,66.5,62.8,29.92,NW,309,0.0,0.0,88,0.00,,,0.00,VWS V14.00,2013-05-13 02:06:00,
2013-05-12 22:11:00,66.4,63.1,29.92,NW,309,0.0,0.0,89,0.00,,,0.00,VWS V14.00,2013-05-13 02:11:00,
2013-05-12 22:16:00,66.1,62.8,29.92,NW,309,0.0,1.0,89,0.00,,,0.00,VWS V14.00,2013-05-13 02:16:00,
2013-05-12 22:21:00,65.9,62.9,29.92,NW,309,0.0,0.0,90,0.00,,,0.00,VWS V14.00,2013-05-13 02:21:00,
2013-05-12 22:26:00,65.7,62.7,29.92,NW,309,0.0,0.0,90,0.00,,,0.00,VWS V14.00,2013-05-13 02:26:00,
2013-05-12 22:31:00,65.5,62.5,29.92,NE,42,2.0,2.0,90,0.00,,,0.00,VWS V14.00,2013-05-13 02:31:00,
2013-05-12 22:37:00,65.4,62.7,29.93,NE,56,2.0,3.0,91,0.00,,,0.00,VWS V14.00,2013-05-13 02:37:00,
2013-05-12 22:42:00,65.2,62.2,29.93,NE,56,0.0,1.0,90,0.00,,,0.00,VWS V14.00,2013-05-13 02:42:00,
2013-05-12 22:47:00,65.3,61.3,29.93,NE,56,1.0,2.0,87,0.00,,,0.00,VWS V14.00,2013-05-13 02:47:00,
2013-05-12 22:52:00,65.6,60.6,29.93,NE,56,0.0,1.0,84,0.00,,,0.00,VWS V14.00,2013-05-13 02:52:00,
2013-05-12 22:57:00,65.9,60.3,29.93,NE,56,1.0,2.0,82,0.00,,,0.00,VWS V14.00,2013-05-13 02:57:00,
2013-05-12 23:02:00,66.0,60.0,29.93,NE,56,1.0,2.0,81,0.00,,,0.00,VWS V14.00,2013-05-13 03:02:00,
2013-05-12 23:08:00,66.1,59.0,29.93,NE,56,1.0,2.0,78,0.00,,,0.00,VWS V14.00,2013-05-13 03:08:00,
2013-05-12 23:13:00,66.4,59.0,29.93,NE,56,1.0,2.0,77,0.00,,,0.00,VWS V14.00,2013-05-13 03:13:00,
2013-05-12 23:18:00,66.4,59.0,29.93,NE,56,1.0,2.0,77,0.00,,,0.00,VWS V14.00,2013-05-13 03:18:00,
2013-05-12 23:23:00,66.1,59.4,29.93,NE,56,0.0,1.0,79,0.00,,,0.00,VWS V14.00,2013-05-13 03:23:00,
2013-05-12 23:28:00,65.6,60.0,29.93,NE,56,0.0,2.0,82,0.00,,,0.00,VWS V14.00,2013-05-13 03:28:00,
2013-05-12 23:33:00,65.1,60.2,29.93,NE,56,0.0,1.0,84,0.00,,,0.00,VWS V14.00,2013-05-13 03:33:00,
2013-05-12 23:39:00,64.6,59.0,29.93,NE,56,0.0,2.0,82,0.00,,,0.00,VWS V14.00,2013-05-13 03:39:00,
2013-05-12 23:44:00,64.5,59.6,29.93,NE,56,0.0,1.0,84,0.00,,,0.00,VWS V14.00,2013-05-13 03:44:00,
2013-05-12 23:49:00,64.3,59.7,29.93,NE,56,0.0,1.0,85,0.00,,,0.00,VWS V14.00,2013-05-13 03:49:00,
2013-05-12 23:54:00,64.1,59.8,29.94,NE,56,0.0,0.0,86,0.00,,,0.00,VWS V14.00,2013-05-13 03:54:00,
2013-05-12 23:59:00,63.6,59.7,29.94,NE,56,1.0,1.0,87,0.00,,,0.00,VWS V14.00,2013-05-13 03:59:00,